Dewpoint
60 61 59 60 59 59 59 57 57 57 56 57 55 54 57 58 56 57 57 58 57 57 57 57 57 57 55 55 55 50 52 53 54 55 54 53 54 54 54 55 54 54
60 61 57 59 58 58 60 59 57 58 57 57 56 57 56 56 58 58 57 57 57 57 57 57 58 57 56 54 56 56 55 55 52 50 54 54 54 55 56 56 54 53
60 60 59 59 58 60 59 59 59 58 58 57 58 57 57 59 57 57 59 58 58 58 57 56 56 56 56 56 55 54 53 54 54 54 54 53 55 54 54 54 54 53
60 61 61 60 60 59 59 59 59 58 58 57 56 56 57 58 59 59 58 57 58 58 58 58 58 57 53 56 57 56 56 55 55 56 55 56 54 54 55 55 54 52
61 61 62 61 60 59 59 57 57 59 57 57 57 57 57 59 59 58 57 58 59 59 59 58 58 57 57 55 55 56 57 56 55 53 52 52 53 53 53 55 52 52
62 60 59 59 60 59 58 56 57 58 58 58 58 57 59 58 58 57 57 57 57 57 59 58 58 58 57 57 57 57 57 56 56 56 53 53 54 54 48 55 51 48
61 61 61 58 58 58 58 58 58 57 58 58 56 58 59 58 57 56 55 56 55 55 55 58 58 58 59 58 58 59 56 56 56 54 49 49 50 52 51 51 52 48
61 61 61 58 57 60 57 56 56 56 58 57 57 58 57 57 54 58 57 55 54 53 56 54 57 57 58 59 57 57 57 58 58 57 54 54 56 50 51 53 54 50
61 62 62 62 57 57 56 53 55 56 57 57 56 59 58 57 57 58 58 57 56 57 54 55 56 57 59 59 58 57 57 58 59 57 56 55 55 54 49 52 54 52
60 62 63 62 63 56 57 55 56 56 57 58 54 57 55 59 58 57 58 58 57 56 55 55 56 57 59 59 59 58 58 57 57 57 57 57 56 55 52 54 56 55
61 60 59 60 60 60 58 55 55 55 55 55 57 57 55 57 56 55 57 57 58 55 55 55 56 56 58 59 59 60 60 59 58 57 58 58 58 56 57 55 57 57
60 59 59 59 60 58 59 58 56 56 55 56 55 54 56 57 57 54 55 54 54 56 56 54 57 59 58 58 59 60 61 60 59 58 59 58 58 58 58 55 57 56
58 59 59 59 58 58 59 61 60 57 56 55 54 54 55 55 56 54 57 56 54 56 57 59 59 58 59 59 58 59 58 58 58 58 58 59 58 59 58 58 58 58
60 60 60 59 59 59 59 60 60 60 59 59 59 60 59 56 57 58 59 57 57 59 59 59 59 59 59 59 59 59 58 59 59 58 58 58 58 58 59 59 59 59
59 58 59 58 58 58 58 58 59 60 58 59 59 59 59 58 57 58 58 58 58 58 58 58 59 59 55 54 58 58 59 59 58 58 58 58 58 59 59 59 60 60
59 58 58 58 57 57 58 60 59 59 59 58 58 58 58 58 58 58 57 58 57 58 57 58 59 57 48 45 46 55 57 59 57 58 58 58 57 56 58 58 59 59
58 58 58 58 58 59 57 59 58 58 58 57 57 57 58 58 58 58 58 57 57 57 57 57 59 51 41 40 41 43 57 58 58 58 58 57 56 56 57 58 58 57
59 56 57 59 59 57 57 57 59 59 57 57 58 57 58 58 58 57 58 58 58 57 58 58 56 41 39 40 41 41 44 54 59 58 58 57 55 56 57 57 58 58
55 56 56 56 56 57 57 57 57 57 57 57 57 59 58 58 57 58 58 58 58 57 57 57 54 38 38 39 40 40 41 45 55 57 55 55 56 56 55 56 55 55
55 55 56 57 57 57 57 56 56 57 58 57 58 58 58 58 58 58 57 57 58 58 56 53 51 39 38 39 40 39 39 41 53 53 54 53 53 53 54 54 53 54
56 57 56 55 56 56 57 56 56 57 58 58 57 58 57 57 57 57 57 56 57 56 50 51 51 37 38 39 39 39 38 39 52 53 52 52 53 53 53 54 53 55
49 50 51 54 56 56 55 55 56 57 57 58 58 57 58 57 57 57 57 56 56 51 50 50 49 37 39 39 40 39 38 51 54 51 53 51 52 52 49 48 49 50
44 45 50 48 49 51 53 55 56 56 56 56 56 56 56 56 56 55 54 54 52 49 49 49 49 41 38 40 39 38 44 54 55 51 48 51 50 49 46 43 44 48
42 42 48 46 50 46 48 51 53 54 53 53 53 52 52 52 52 52 52 51 49 48 48 48 49 45 38 39 39 38 39 50 51 51 47 47 48 48 46 42 42 45
43 43 44 45 44 47 51 51 50 51 49 51 50 48 49 48 48 48 48 49 48 47 48 48 49 45 37 39 38 38 42 51 49 47 45 46 47 47 46 43 39 40
45 47 48 45 44 48 51 51 52 53 53 52 51 46 43 43 44 44 45 45 49 48 48 48 48 48 44 37 38 38 38 45 49 48 46 45 44 45 45 43 41 38